Regional Weather Roundup
Issued by NWS

Home | Current Version | Previous Version | Graphics & Text | Print | Product List | Glossary On
Versions: 1 2 3 4 5 6 7 8 9 10 11 12 13 14 15 16 17 18 19 20 21 22 23 24 25 26 27 28 29 30 31 32 33 34 35 36 37 38 39 40 41 42 43 44 45 46 47 48 49 50
000
ASUS43 KLOT 121203
RWRIL

ILLINOIS REGIONAL WEATHER ROUNDUP
NATIONAL WEATHER SERVICE CHICAGO/ROMEOVILLE IL
600 AM CST FRI FEB 12 2016

NOTE: "FAIR" INDICATES FEW OR NO CLOUDS BELOW 12,000 FEET WITH NO
SIGNIFICANT WEATHER AND/OR OBSTRUCTIONS TO VISIBILITY.

* THESE STATIONS ARE NOT UNDER NWS QUALITY CONTROL. THEY ALSO MAY NOT
  REPORT WEATHER SUCH AS PRECIPITATION OR FOG.

ILZ001-002-007-009-015-016-024-121300-
NORTHWEST ILLINOIS

CITY           SKY/WX    TMP DP  RH WIND       PRES   REMARKS
MOLINE         CLOUDY    22  16  78 W8        30.21R WCI  12
6HR MIN TEMP:  19; 6HR MAX TEMP:  22;

STERLING*      CLOUDY    19  12  73 W9        30.16S WCI   9
SAVANNA*       FLURRIES  19  12  74 W5        30.19S WCI  12
$$

ILZ003-004-008-010-011-017-018-121300-
NORTH CENTRAL ILLINOIS

CITY           SKY/WX    TMP DP  RH WIND       PRES   REMARKS
ROCKFORD       FLURRIES  18   8  65 NW13      30.18S WCI   5
6HR MIN TEMP:  16; 6HR MAX TEMP:  19; 6HR PCP: TRACE;

FREEPORT*      LGT SNOW  16  10  76 W7        30.17F WCI   6
ROCHELLE*      CLOUDY    18  11  74 W8        30.17S WCI   8
DE KALB*       CLOUDY    19   9  64 W9        30.15F WCI   8
$$

ILZ005-006-012>014-019>023-121300-
NORTHEAST ILLINOIS

CITY           SKY/WX    TMP DP  RH WIND       PRES   REMARKS
CHICAGO-OHARE  CLOUDY    19   7  59 W10       30.14F WCI   7
6HR MIN TEMP:  18; 6HR MAX TEMP:  20;

CHICAGO-MIDWAY CLOUDY    21   6  52 W9        30.16S WCI  11
6HR MIN TEMP:  19; 6HR MAX TEMP:  21;

AURORA         CLOUDY    18  11  74 W7        30.16S WCI   9
6HR MIN TEMP:  15; 6HR MAX TEMP:  19;

LANSING*       CLOUDY    20  13  74 W6        30.17R WCI  12
WAUKEGAN       CLOUDY    18   7  62 W8        30.11F WCI   8
6HR MIN TEMP:  17; 6HR MAX TEMP:  19;

DUPAGE AIRPORT CLOUDY    17   7  64 W8        30.15R WCI   7
6HR MIN TEMP:  15; 6HR MAX TEMP:  19;

WHEELING       CLOUDY    20   7  57 W10       30.15F WCI   9
6HR MIN TEMP:  19; 6HR MAX TEMP:  20;

NORTHERLY ISL    N/A     21   6  52 W7          N/A  WCI  13
$$

LMZ740>746-121300-
SOUTHERN LAKE MICHIGAN

STATION/POSITION SKY/WX   TEMP    WIND        PRES    VSBY  WAVE
                          AIR SEA DIR/SP/G                  HT/PER
                          (F)     (DEG/KT/KT) (MB)    (MI)  (FT/S)
HARRISON CRIB              22     260/ 13/ 15   N/A
BURNHAM HARBOR             21     270/  9/ 13   N/A
CALUMET HARBOR             20     230/  7/ 10 1020.5
BURNS HARBOR               20     240/ 10/ 13 1022.0S
MICHIGAN CITY              19     200/ 13/ 15   N/A
$$

ILZ025>027-034>036-040-047-049-050-058-095>099-121300-
WEST-CENTRAL ILLINOIS

CITY           SKY/WX    TMP DP  RH WIND       PRES   REMARKS
QUINCY         CLOUDY    20  17  88 NW3       30.23R
MACOMB*        CLOUDY    21  19  92 W7        30.25R WCI  13
$$

ILZ028>032-037-038-041>044-048-051>054-059>061-121300-
CENTRAL ILLINOIS

CITY           SKY/WX    TMP DP  RH WIND       PRES   REMARKS
BLOOMINGTON    CLOUDY    21  20  96 W8        30.19S WCI  11
DECATUR        LGT SNOW  20  17  88 SW5       30.21R FOG     WCI  13
PEORIA         CLOUDY    22  17  81 NW5       30.22R WCI  16
6HR MIN TEMP:  22; 6HR MAX TEMP:  23; 6HR PCP: TRACE;

LINCOLN*       CLOUDY    23  21  92 W5        30.21S WCI  17
SPRINGFIELD    CLOUDY    21  18  88 W5        30.22F WCI  15
6HR MIN TEMP:  20; 6HR MAX TEMP:  26; 6HR PCP:  0.04;

TAYLORVILLE    NOT AVBL
$$

ILZ033-039-045-046-055>057-062-063-121300-
EAST-CENTRAL ILLINOIS

CITY           SKY/WX    TMP DP  RH WIND       PRES   REMARKS
CHAMPAIGN      LGT SNOW  20  17  88 SW7       30.20R FOG     WCI  11
MATTOON        CLOUDY    19  14  81 CALM      30.20R HAZE
$$

ILZ079-100>102-121300-
SOUTHWEST ILLINOIS

CITY           SKY/WX    TMP DP  RH WIND       PRES   REMARKS
ALTON          CLOUDY    24  21  89 CALM      30.24R
BELLEVILLE     CLOUDY    25  23  93 CALM      30.22R
CAHOKIA*       CLOUDY    26  20  77 CALM      30.24R
SPARTA*        CLOUDY    26  21  83 CALM      30.24R
$$

ILZ064>066-069>071-074>076-080>082-084>086-088>090-092>094-121300-
SOUTH-CENTRAL ILLINOIS

CITY           SKY/WX    TMP DP  RH WIND       PRES   REMARKS
CARBONDALE     CLOUDY    26  22  84 NE3       30.23R
6HR MIN TEMP:  25; 6HR MAX TEMP:  29; 6HR PCP:  0.04;

MARION         CLOUDY    27  25  93 CALM      30.23R
MT. VERNON     CLOUDY    25  19  80 NE6       30.22R WCI  18
CENTRALIA*     CLOUDY    25  22  91 CALM      30.22R
SALEM*         FLURRIES  25  21  85 CALM      30.22R
$$

ILZ067-068-072-073-078-083-087-091-121300-
SOUTHEAST ILLINOIS

CITY           SKY/WX    TMP DP  RH WIND       PRES   REMARKS
LAWRENCEVILLE  LGT SNOW  23  14  68 N5        30.22S WCI  17
HARRISBURG*    FLURRIES  25  24  94 CALM      30.22F
ROBINSON*      LGT SNOW  21  17  82 CALM      30.23R
$$

ABBREVIATIONS USED IN REMARKS
   TC - TEMPERATURE IN CELSIUS
  WCI - WIND CHILL INDEX
   HX - HEAT INDEX
  VSB - VISIBILITY
$$




USA.gov is the U.S. government's official web portal to all federal, state and local government web resources and services.